Location: Binningen
(47.7924°N, 8.7261°E)
Time: 03:53:33
(UTC+00:00)

Cosmos 1378 - Pass Details

Date: 17 May 2021
Orbit: 491 x 498 km, 82.5° (Epoch: 14 June)

Event Time Altitude Azimuth Distance (km) Brightness Sun altitude
Exits shadow 23:00:29 55° 282° (WNW) 601 3.5 -22.5°
Maximum altitude 23:00:29 55° 282° (WNW) 601 3.5 -22.5°
Drops below altitude 10° 23:04:10 10° 1° (N) 1,708 6.9 -22.5°
Sets 23:06:19 0° 6° (N) 2,598 8.2 -22.6°
